Wind_Speed
12 11 11 12 14 16 17 19 20 22 23 25 27 28 29 30 31 31 32 32 32 31 32 32 32 31 31 31 32 32 33 32 32 31 31 33 36 38 39 39 41 42 43 43 44 44 46 46 46 47 46 44 43 42 42 42 42 42 42 42 44 43 41 36 26 22 26 30 30 33 38 42 44 49 53 51 50 48 45 42 41 38 37 35 32
13 13 12 13 15 16 17 19 21 22 24 25 27 28 28 29 29 30 31 32 32 32 32 32 32 31 31 32 33 33 33 33 32 31 31 33 35 37 38 39 40 41 41 42 43 44 44 44 44 44 44 44 43 42 42 41 40 41 42 42 43 44 43 40 34 26 23 26 28 29 32 38 42 46 50 51 51 50 48 46 44 41 38 36 33
14 13 14 15 15 16 18 20 21 23 25 26 27 28 28 28 28 29 31 31 32 32 32 32 32 32 32 33 33 33 33 33 32 32 32 33 34 36 38 39 40 41 42 43 43 43 43 43 44 44 43 42 43 42 42 42 41 41 43 44 45 45 45 44 40 33 26 23 26 28 31 36 39 42 47 49 49 50 49 48 46 43 40 36 33
14 13 14 14 15 17 18 20 22 23 24 26 26 26 27 27 27 28 29 30 31 32 32 32 32 32 33 34 34 34 34 33 33 33 33 33 35 36 37 39 40 42 43 43 43 43 42 43 43 43 43 42 42 42 42 42 42 43 44 44 45 46 45 45 44 40 32 23 23 28 30 32 33 35 40 42 42 45 46 46 45 43 41 37 34
10 10 11 13 14 15 17 19 21 22 22 23 24 24 25 26 26 27 28 29 31 31 32 32 32 33 34 35 36 35 35 34 34 34 34 34 36 37 38 39 40 42 43 44 44 43 43 44 44 43 42 43 43 42 42 43 43 44 44 43 43 44 43 42 41 39 32 22 19 22 23 25 27 28 34 38 36 36 38 40 41 41 39 37 34
5 7 9 10 12 13 15 17 18 19 20 21 21 22 23 24 25 26 27 29 30 31 32 32 33 34 35 35 36 36 36 35 35 35 36 36 37 38 39 39 40 41 42 43 44 44 44 44 44 44 43 43 44 43 42 43 43 44 45 44 43 43 41 39 36 33 29 23 18 19 21 25 27 28 33 37 36 35 34 34 35 37 37 36 35
5 6 8 10 12 13 14 16 17 18 19 19 20 21 22 23 24 25 26 27 29 30 31 32 32 33 35 36 36 36 36 36 36 36 37 37 37 38 39 40 40 41 42 43 43 43 44 45 44 44 45 45 46 45 43 43 43 45 46 45 43 40 39 37 33 32 30 25 22 23 26 29 30 28 31 34 34 35 37 35 32 33 36 37 38
7 8 9 11 13 15 15 16 17 18 19 20 21 21 22 22 23 24 25 26 28 28 29 30 31 32 34 35 36 36 36 36 37 37 38 38 38 39 40 40 41 41 42 42 43 43 44 45 45 46 47 47 47 46 45 44 44 44 45 44 42 39 37 35 32 32 32 29 27 28 28 28 28 27 29 32 31 32 37 39 36 35 37 38 38
9 10 11 13 15 15 16 17 18 18 19 20 21 21 22 22 23 23 25 26 27 27 28 28 30 32 33 35 35 36 36 37 37 37 38 38 39 39 40 40 41 41 42 42 42 43 43 45 46 47 47 48 48 48 48 47 46 45 44 42 40 39 37 35 33 32 31 30 28 27 25 26 30 32 35 37 37 36 38 38 35 35 36 36 36
10 11 13 14 14 15 16 16 17 17 18 19 19 20 20 21 22 23 24 25 26 26 27 28 29 31 33 34 35 35 36 37 38 37 38 38 39 39 40 40 41 41 41 41 41 42 43 44 45 46 47 47 48 48 49 49 49 48 47 43 41 41 39 36 34 34 32 29 29 28 26 27 32 39 42 42 40 38 38 37 32 29 29 28 28
11 12 12 12 13 13 14 14 15 16 17 18 18 19 19 20 22 23 24 24 25 25 26 28 29 31 32 34 35 36 37 38 37 37 37 37 38 39 40 40 40 41 41 41 42 42 42 43 43 44 45 46 46 47 48 49 50 50 49 46 43 43 42 39 36 35 33 31 31 31 30 30 33 37 38 37 36 36 37 37 33 29 28 23 19
11 11 10 10 11 12 12 13 15 16 17 18 19 19 20 21 23 24 24 25 25 25 26 28 29 30 31 33 34 36 37 37 37 36 36 36 36 38 40 41 41 41 41 41 42 41 41 41 42 43 43 44 44 45 46 47 49 49 49 48 46 46 46 45 42 39 37 34 32 32 34 32 31 34 35 35 35 34 34 35 34 32 30 26 20
11 11 10 9 9 11 12 14 15 16 17 18 19 19 20 21 22 23 24 25 25 26 27 28 29 30 31 33 35 36 37 36 35 34 34 35 35 36 39 41 42 42 42 41 41 41 40 40 40 41 41 41 41 42 42 43 45 45 46 46 47 48 49 49 48 45 43 39 34 34 37 34 32 35 39 39 38 34 30 30 31 31 29 28 27
13 13 13 13 13 13 14 15 17 18 19 19 19 20 21 22 22 23 24 24 25 26 27 28 29 30 30 32 34 36 36 35 33 32 32 33 33 35 38 40 42 43 43 42 41 41 40 40 40 41 40 38 38 38 39 40 40 40 41 43 46 48 48 49 49 47 44 41 38 40 41 39 37 40 42 42 41 38 34 33 34 34 32 29 27
14 15 16 17 18 19 19 19 20 20 21 20 20 21 21 22 23 24 24 24 25 26 27 28 29 30 30 31 33 36 36 34 32 31 31 31 32 33 37 39 41 43 43 42 41 42 41 41 41 42 41 39 38 36 37 38 38 38 38 40 42 44 46 47 48 46 44 42 41 40 39 38 38 41 44 43 42 40 38 37 37 35 30 25 22
17 18 18 20 21 22 23 23 24 24 24 23 23 24 23 24 24 25 25 25 26 27 27 28 29 30 30 30 32 36 37 33 30 30 30 30 31 32 35 38 40 42 42 41 41 42 42 41 41 41 41 40 39 37 36 37 37 37 37 38 38 40 42 44 44 43 42 40 38 36 36 37 38 40 43 43 42 41 37 32 31 30 27 22 19
20 21 21 23 24 25 26 27 28 29 29 28 28 28 27 27 27 26 26 27 28 28 28 29 29 29 30 30 31 35 37 33 30 30 29 29 30 32 34 36 38 40 41 41 41 41 41 40 39 40 40 40 38 36 35 34 35 36 35 35 34 35 37 37 35 36 37 38 39 38 38 39 40 40 42 44 45 44 38 30 30 32 28 19 16
24 25 25 26 26 27 28 28 29 30 31 31 31 31 31 30 30 28 28 29 30 30 30 31 32 31 31 32 31 34 37 35 31 30 30 28 29 31 33 35 37 38 39 40 41 40 40 39 38 38 40 40 38 36 33 32 33 34 34 32 32 33 33 30 29 31 34 37 39 38 36 38 41 41 42 45 46 45 40 35 36 36 29 20 16
26 27 27 28 28 29 29 30 30 30 31 31 31 32 32 33 32 31 30 31 32 33 32 32 35 35 33 34 33 33 36 37 33 30 30 28 28 30 32 34 36 37 36 38 39 38 38 39 38 37 38 39 37 35 33 31 32 34 33 30 30 33 31 29 29 32 35 36 37 36 35 36 39 40 41 42 44 43 40 39 40 39 31 24 22
27 28 28 28 29 30 30 31 31 30 31 32 32 32 32 33 33 33 33 33 33 35 35 33 36 38 36 34 34 34 35 36 34 31 30 29 28 29 32 34 35 35 35 35 36 36 36 36 36 35 35 36 36 35 34 33 33 34 34 33 33 34 32 31 34 36 37 37 37 36 35 34 35 37 37 37 39 41 38 36 37 38 33 28 26
28 28 28 28 29 30 30 30 31 31 31 31 32 33 32 32 32 32 32 33 33 35 36 34 35 38 39 36 35 35 34 34 34 32 30 29 28 28 31 35 35 35 35 35 35 34 34 33 33 33 32 33 34 34 34 34 34 34 37 38 38 36 33 34 37 37 36 36 34 33 33 33 34 35 35 35 37 38 36 32 31 33 32 30 29
29 29 29 29 29 29 30 30 31 31 31 30 31 34 33 31 31 31 30 31 32 33 35 34 33 37 39 37 36 36 34 33 33 31 29 28 28 28 31 34 35 34 35 36 35 33 33 33 32 32 31 31 31 31 32 34 34 35 38 39 38 36 34 34 36 35 34 33 32 31 32 33 33 32 32 33 34 34 32 30 29 29 29 29 27
30 30 30 30 30 31 31 31 31 31 31 30 30 33 33 31 31 30 29 29 30 31 32 31 30 33 37 37 35 34 32 31 29 28 27 27 27 28 30 32 34 34 35 37 36 34 33 34 32 32 31 30 29 29 30 33 34 35 37 38 37 37 35 33 33 33 32 32 31 31 32 33 33 32 32 32 32 32 30 29 28 28 26 25 23
31 32 32 33 33 33 33 34 33 32 31 30 30 32 33 31 31 30 28 27 27 29 30 29 27 28 31 34 34 32 29 28 28 27 26 26 26 27 28 30 32 33 35 38 38 36 35 34 33 31 30 29 28 29 30 32 33 34 36 36 36 34 33 31 31 32 31 30 30 29 30 32 34 35 35 35 33 31 28 26 25 25 24 22 21
31 31 32 32 33 34 35 36 35 33 31 30 30 31 32 31 32 31 29 26 25 27 28 27 25 25 27 29 32 32 28 27 28 27 25 25 26 26 27 29 29 31 34 37 37 37 36 36 34 31 29 28 27 28 28 30 31 33 34 33 33 32 31 30 30 31 30 29 28 27 28 31 34 35 36 35 32 28 25 24 23 22 21 20 20
29 30 30 32 33 33 35 37 36 35 33 31 30 30 30 30 31 32 30 27 25 26 28 27 25 24 25 26 29 31 29 28 27 26 25 25 26 26 26 28 28 29 32 35 36 37 38 36 34 31 29 27 26 26 26 27 28 30 31 31 31 32 31 30 30 30 29 28 27 27 29 32 31 31 32 32 29 26 25 25 25 23 23 23 22
30 31 31 32 34 33 33 35 36 35 34 32 30 31 31 29 29 30 30 27 25 26 26 26 25 23 23 26 28 28 29 28 26 25 25 25 26 27 26 27 28 28 29 32 33 34 35 35 33 30 28 26 25 25 26 25 26 27 29 30 31 32 32 31 31 32 30 28 27 27 29 30 29 29 30 29 26 26 26 26 26 25 24 24 22
28 30 30 30 31 30 30 31 32 33 34 33 31 31 31 29 28 31 32 28 26 27 27 26 26 25 24 26 26 25 26 26 23 23 24 24 25 26 27 27 27 27 28 29 29 29 30 29 27 25 23 21 21 22 23 23 24 25 27 28 29 29 29 29 30 30 29 28 28 28 29 30 30 30 29 26 25 26 26 25 25 25 25 25 23
29 29 29 29 29 29 29 30 30 31 33 34 33 32 32 30 29 34 38 34 28 29 31 31 31 28 27 27 25 22 24 26 23 22 24 24 24 26 27 27 27 27 27 27 26 26 24 22 21 20 19 18 18 19 19 20 21 23 24 26 26 26 27 28 28 27 27 27 28 30 31 31 30 29 28 26 26 26 24 24 25 25 25 25 23
33 30 28 28 28 28 29 30 30 30 31 32 34 36 38 35 30 30 36 38 33 29 30 34 35 32 29 31 29 26 27 30 28 25 26 26 26 26 27 27 27 27 26 25 24 23 21 19 19 18 18 17 17 17 18 19 19 20 22 23 24 24 26 27 26 26 27 29 30 32 33 31 29 28 27 26 25 24 23 24 24 25 26 25 22
29 28 25 25 26 27 28 30 30 30 30 30 30 32 37 40 38 33 30 32 33 31 29 31 34 33 32 34 35 32 31 32 30 28 28 27 27 27 27 27 27 25 24 23 22 21 19 17 17 16 16 16 16 16 17 18 17 18 18 19 19 22 25 25 25 26 28 29 30 31 30 29 28 28 27 26 25 24 24 24 24 25 26 25 22
28 29 26 24 25 25 26 28 29 28 29 28 27 27 28 33 39 41 36 28 27 29 29 29 30 31 32 34 35 34 32 30 28 28 27 26 26 27 26 26 25 23 21 21 21 20 17 16 15 14 14 15 15 15 17 17 16 18 18 16 17 21 24 25 26 28 29 29 29 28 27 26 26 26 25 24 24 24 24 24 25 25 24 23 22
29 30 27 25 25 25 25 26 28 28 29 28 27 27 26 25 28 37 40 36 30 28 28 28 28 29 30 32 33 34 33 31 28 27 26 25 25 24 23 23 21 19 20 20 19 17 15 15 14 13 14 14 14 15 16 16 16 18 19 17 17 19 22 24 25 27 27 27 27 25 24 23 23 22 23 23 24 25 25 25 25 24 23 21 20
27 26 24 23 25 27 27 27 29 30 30 30 28 28 28 27 26 27 30 32 31 28 26 26 25 25 27 29 30 31 31 29 27 24 22 21 21 20 19 19 18 17 19 20 18 15 14 14 13 13 14 14 14 14 15 16 16 18 19 18 17 17 19 21 23 24 24 23 23 22 21 20 21 22 23 23 23 24 25 25 24 23 22 20 20
26 26 25 23 24 27 28 29 31 31 30 32 32 30 29 29 28 26 25 25 25 26 26 26 24 23 24 26 27 28 27 25 22 20 17 16 16 16 16 16 15 14 16 18 18 16 14 13 13 13 14 14 14 15 16 16 17 18 19 19 19 18 19 19 20 21 21 19 18 18 18 19 20 21 23 24 24 24 24 24 24 23 22 21 20
27 28 27 24 22 24 27 30 31 31 31 32 33 32 30 29 28 27 27 26 25 25 27 27 25 24 24 25 25 24 24 22 19 16 14 13 13 14 15 14 13 11 12 13 15 15 13 13 12 13 13 14 14 15 15 16 16 17 18 19 20 21 20 20 20 19 18 16 16 16 17 19 20 21 22 23 24 24 24 24 24 24 23 22 21
27 28 27 24 23 25 28 30 30 30 30 30 30 30 30 29 28 27 26 26 25 25 25 25 24 23 22 23 22 21 21 20 17 14 12 11 11 12 14 14 11 10 10 11 12 13 12 11 12 12 13 15 15 15 16 16 17 17 18 19 20 21 21 21 21 20 18 17 17 18 19 20 21 22 23 23 23 23 23 23 23 23 23 22 21
28 27 26 27 27 28 29 29 29 28 28 28 29 29 28 28 28 27 25 25 25 25 24 23 21 19 19 21 20 18 17 17 14 12 10 8 8 10 12 12 10 10 9 8 10 12 12 11 11 12 13 15 16 17 17 18 18 18 19 19 20 20 21 21 21 21 20 20 19 19 20 20 21 23 24 24 23 22 22 23 23 23 21 20 20
29 28 27 26 26 27 28 28 28 28 27 26 26 26 26 26 26 26 24 24 24 23 22 21 19 18 19 19 17 15 13 12 11 8 7 6 6 6 6 7 8 8 7 6 7 10 12 12 11 12 12 13 15 16 17 18 18 19 19 19 19 19 19 20 20 21 20 20 20 20 21 21 22 23 24 23 23 23 23 23 23 23 21 20 19
29 31 30 27 25 26 26 27 27 28 27 25 25 25 25 25 25 25 24 23 22 22 21 20 19 19 18 17 14 13 12 11 8 5 4 5 5 3 3 4 5 5 4 4 5 7 9 11 12 12 12 13 13 14 16 17 17 18 18 19 19 19 19 20 20 21 20 20 21 21 21 22 22 23 22 22 23 23 23 23 22 22 21 19 17
30 31 32 30 27 26 25 26 26 26 26 27 28 28 28 27 26 26 25 23 22 21 20 19 19 18 16 14 12 11 11 9 6 3 2 3 4 3 3 4 4 4 3 3 3 4 6 8 10 11 12 12 12 13 14 14 15 16 17 17 18 18 18 19 19 20 20 20 20 21 21 21 22 22 22 21 21 21 22 21 21 20 20 19 17
30 30 32 32 32 30 29 28 27 27 28 30 31 31 30 29 28 26 25 24 22 20 19 17 16 14 12 10 9 8 9 7 5 3 3 4 4 4 3 3 2 2 2 2 2 2 3 5 7 8 9 9 10 11 11 12 13 14 15 16 16 17 17 18 18 18 19 19 20 20 20 21 21 21 21 20 20 20 20 20 20 20 20 19 18
29 29 31 32 33 32 30 28 27 27 28 29 30 30 30 29 27 26 25 23 21 19 16 14 12 9 8 7 6 6 6 5 4 5 5 5 6 6 6 5 4 3 2 1 1 0 1 2 4 5 6 6 7 8 8 9 10 12 13 14 15 15 16 16 17 17 18 18 19 19 20 20 19 19 19 20 20 20 20 20 20 19 19 18 18
28 29 29 29 28 27 26 26 26 26 26 25 25 25 24 23 22 22 20 19 17 15 12 10 7 5 5 4 4 5 5 5 6 6 7 7 7 8 7 6 5 4 3 2 2 2 1 1 2 3 4 4 4 5 5 6 7 8 10 11 13 14 14 15 16 16 17 17 18 18 19 18 18 19 20 20 20 20 20 20 20 19 19 19 20
25 26 25 25 25 24 25 26 25 23 22 21 21 21 20 20 19 17 15 12 10 7 5 4 3 4 4 4 5 5 6 7 7 8 8 8 8 8 8 7 6 5 4 3 3 3 3 3 3 3 4 4 4 3 4 4 5 6 7 8 9 10 11 11 11 12 13 15 16 17 17 18 18 19 20 20 20 20 20 20 20 20 21 21 21
24 24 24 23 23 23 24 26 25 23 21 22 23 22 22 21 19 18 15 13 10 8 6 4 3 3 4 5 6 7 7 8 9 9 9 9 9 9 8 7 6 5 4 4 4 5 5 5 5 5 6 6 6 5 5 5 5 6 6 6 7 8 8 8 8 9 11 12 13 14 15 16 16 17 18 19 20 20 20 20 20 21 22 22 22
24 24 24 23 22 22 22 24 24 23 23 24 24 23 22 21 20 19 18 16 14 13 12 10 8 7 7 8 8 8 9 10 11 11 11 12 11 11 10 9 8 8 7 7 6 6 6 6 6 6 6 7 7 7 7 7 7 7 7 7 7 8 8 8 8 9 10 10 11 12 14 14 14 14 15 16 17 19 19 19 20 21 21 22 22
24 24 25 25 23 22 23 24 23 23 23 24 23 23 23 22 22 21 21 20 19 17 15 14 13 11 10 11 11 11 12 12 13 13 14 14 13 13 12 11 11 11 10 10 10 9 9 8 8 8 8 8 8 8 8 7 7 7 7 7 7 7 7 8 8 9 9 10 10 11 13 13 14 14 15 15 16 18 18 19 19 20 20 21 20
25 24 24 24 23 22 22 24 25 24 24 25 24 23 23 24 24 24 23 22 21 19 17 16 15 14 13 14 14 13 14 14 14 14 14 14 13 13 12 11 11 10 10 10 10 9 9 8 8 8 7 7 7 7 6 6 6 5 5 5 5 5 6 6 6 7 8 8 9 9 10 10 11 12 13 14 15 16 16 17 17 17 18 18 17
24 24 23 23 23 22 22 23 25 26 27 27 27 26 25 25 25 25 24 22 21 20 19 17 16 15 15 15 14 14 14 14 14 14 13 13 12 12 11 10 9 8 8 8 7 7 6 6 6 6 5 5 5 4 4 3 3 2 2 2 2 3 3 4 5 5 6 7 7 8 8 9 9 10 10 11 11 12 13 14 14 15 16 16 16
23 23 23 23 23 23 23 24 25 26 27 27 27 27 26 26 25 25 24 23 21 20 19 18 17 16 16 15 15 14 14 14 13 13 12 12 11 10 10 9 8 8 7 6 6 6 5 5 5 5 4 4 4 3 2 2 2 1 1 1 1 2 2 3 3 4 5 5 6 6 7 8 8 9 10 10 11 11 12 12 13 14 14 15 15
Wind_Direction
258 260 266 271 275 278 279 280 279 278 278 276 274 274 274 273 272 272 271 269 268 266 266 265 264 262 261 261 261 259 259 257 255 255 257 256 251 247 242 238 236 237 237 237 236 237 237 237 238 238 237 238 237 238 238 237 234 232 230 230 230 230 229 229 234 245 239 232 232 231 226 221 217 216 215 214 215 214 214 217 219 218 219 221 221
267 269 273 275 278 284 287 286 285 283 281 280 279 279 278 277 277 275 273 273 271 269 269 268 266 264 262 262 261 261 260 259 258 257 257 256 251 247 244 241 239 238 237 237 237 237 237 237 238 239 239 240 240 239 238 236 234 233 231 230 231 232 231 230 234 242 241 230 225 225 222 218 215 214 213 212 213 213 212 214 217 218 219 222 222
272 271 271 273 278 283 286 286 286 285 284 283 283 283 283 282 280 277 277 277 275 273 272 270 267 265 264 263 262 261 260 259 259 259 258 258 253 248 245 242 241 240 239 239 239 238 238 238 239 240 240 241 241 239 239 237 234 233 233 231 232 234 232 230 233 239 242 235 224 220 218 214 213 212 212 212 213 212 211 212 214 215 218 221 221
272 273 274 278 282 284 286 287 286 286 286 286 287 288 288 287 284 281 281 280 278 276 275 272 269 266 264 263 262 261 260 259 259 259 259 260 258 253 250 247 245 243 242 242 242 241 240 240 241 242 241 241 241 240 238 237 234 234 235 234 233 235 234 231 232 235 238 234 218 215 215 210 209 212 211 209 210 212 210 210 212 214 216 218 219
280 285 286 288 288 288 289 290 290 291 291 291 292 294 293 291 289 286 283 281 280 279 276 273 270 267 265 265 264 262 261 260 259 259 260 261 260 257 254 252 250 248 247 247 246 244 243 242 243 243 242 241 241 241 238 237 236 235 236 236 235 236 237 235 233 235 239 236 214 205 206 205 207 212 210 204 204 207 208 209 211 213 214 215 217
302 299 298 296 295 297 300 301 301 301 301 301 302 300 298 295 292 289 286 283 282 279 277 275 272 269 268 267 265 263 263 261 259 260 260 260 260 258 257 256 255 253 251 250 249 247 246 246 246 244 242 241 241 241 240 238 237 237 237 237 237 237 237 236 234 233 235 236 218 201 202 206 207 209 209 204 200 199 200 204 210 212 212 213 215
334 323 316 311 312 317 318 316 315 313 312 311 308 306 303 300 296 294 290 285 282 279 277 275 273 272 270 268 266 265 263 261 260 260 260 260 260 259 258 258 258 256 254 253 251 250 249 248 248 246 244 243 243 242 241 239 239 238 238 238 237 236 235 235 233 228 225 223 214 208 209 209 207 206 206 203 200 199 196 194 200 207 210 212 215
355 346 336 332 334 334 331 327 325 323 320 317 315 312 310 306 303 300 295 288 285 283 280 278 276 274 272 269 267 266 263 260 259 259 259 259 259 258 258 258 259 258 257 256 254 253 252 250 249 248 247 246 246 245 243 241 240 240 240 238 236 235 233 231 228 223 219 216 213 212 208 204 202 200 197 193 194 198 196 193 195 202 207 211 214
2 356 350 349 347 342 338 334 332 329 326 323 321 319 316 313 309 304 299 295 292 289 285 282 278 275 274 271 269 266 262 260 259 259 259 259 258 258 258 258 258 258 258 258 257 255 253 252 251 251 250 249 249 248 247 245 243 241 241 238 234 232 231 228 222 217 215 215 215 211 203 199 198 193 190 192 194 193 192 193 195 200 204 209 213
10 6 2 359 353 346 343 339 335 333 330 327 326 322 319 316 311 307 303 300 298 295 291 286 282 278 276 273 271 267 264 262 261 261 260 259 259 259 259 258 258 258 259 259 259 258 256 255 254 254 253 252 251 250 249 248 246 245 244 240 234 230 227 225 221 217 215 215 213 206 200 203 201 194 193 196 196 190 187 189 190 193 197 204 214
14 10 3 359 352 346 342 340 338 337 335 332 329 326 323 318 313 310 307 304 302 298 293 288 284 281 278 275 272 269 267 265 265 263 262 261 260 259 260 260 259 259 259 259 260 260 259 258 258 257 256 255 253 252 251 250 249 248 247 243 239 234 229 225 223 219 217 217 216 209 207 209 205 198 196 195 191 187 187 187 186 185 188 196 208
8 5 360 352 346 342 340 339 338 337 336 334 332 329 325 321 318 315 312 310 306 300 294 289 285 283 279 276 273 271 269 268 267 265 263 262 261 260 260 261 261 260 260 260 260 260 260 260 259 259 257 256 255 254 253 252 251 250 248 245 243 240 236 232 228 223 218 218 217 214 213 213 206 198 195 191 186 186 188 188 187 187 189 194 198
2 4 4 356 349 346 343 339 337 337 335 332 329 327 323 320 319 317 314 311 306 299 295 291 287 283 280 276 275 273 271 269 267 266 265 264 262 262 261 261 261 262 261 261 261 261 261 261 262 261 259 258 256 254 253 253 252 251 249 246 244 242 240 237 234 230 225 220 218 217 216 213 205 198 195 191 186 183 185 188 190 190 192 197 200
6 7 7 3 358 353 345 339 335 333 332 330 326 324 321 319 318 316 312 307 301 297 294 290 287 284 280 278 276 274 271 270 269 267 266 266 264 263 262 262 262 263 262 262 262 262 262 262 262 263 263 261 258 256 253 253 252 251 248 245 242 241 240 239 236 233 230 224 221 221 218 212 206 201 195 192 191 189 189 192 194 195 196 198 200
9 5 1 357 353 349 343 337 333 330 330 328 324 323 321 319 318 317 312 305 300 297 293 290 288 285 282 279 277 276 274 272 272 270 268 268 267 264 263 262 262 263 263 263 262 262 262 262 262 263 264 263 261 258 255 253 251 249 246 244 242 240 239 238 236 232 229 226 224 223 218 211 207 202 196 197 200 201 202 203 200 194 191 190 193
6 358 353 349 346 343 340 335 332 331 331 328 325 324 323 321 320 319 314 308 304 300 296 293 291 288 286 282 278 279 281 278 275 275 273 270 268 264 261 261 261 262 263 263 263 263 262 261 261 262 263 263 262 259 257 253 248 245 244 243 242 241 239 239 237 231 227 225 224 223 219 212 207 204 204 204 205 204 201 198 193 185 179 180 187
360 352 348 345 341 340 338 335 334 333 332 330 328 327 325 323 323 321 316 311 308 304 301 299 296 292 290 286 282 284 287 286 283 282 278 273 269 265 261 260 260 260 262 263 264 264 263 262 261 262 263 263 262 260 257 252 246 242 242 241 240 240 239 237 233 227 222 221 220 219 217 213 209 210 212 209 205 200 192 181 179 180 177 177 184
353 348 345 342 340 339 338 336 334 332 331 330 328 327 326 325 324 322 318 314 311 309 307 304 302 298 295 293 291 290 291 291 288 285 282 277 271 266 262 261 260 260 262 263 264 264 264 263 262 261 262 262 262 260 256 250 244 240 239 237 236 236 234 229 221 216 215 218 218 216 214 213 212 214 215 210 205 202 196 188 184 182 179 180 182
349 345 342 341 339 339 338 336 334 332 330 329 327 326 326 325 324 322 319 316 314 312 311 308 305 303 300 298 296 292 292 293 291 287 285 280 273 268 264 261 260 261 262 263 265 264 264 264 263 261 262 263 262 260 257 249 242 239 237 233 231 233 230 220 213 212 211 212 213 212 211 211 212 212 212 208 206 205 202 196 189 182 180 181 177
344 342 341 340 339 339 339 337 335 332 330 327 326 324 323 322 322 321 319 317 315 313 310 308 305 304 302 299 297 294 292 293 292 289 286 282 275 269 264 260 259 262 264 264 265 266 265 264 264 263 262 263 261 259 255 249 242 238 234 230 230 233 228 218 214 213 210 209 208 207 206 206 206 205 202 199 199 199 197 195 192 188 183 178 175
342 340 339 339 338 337 338 336 333 331 329 326 324 322 321 320 318 318 317 315 312 310 308 305 303 302 300 298 296 294 292 291 291 289 286 282 277 269 263 260 260 261 264 265 264 265 266 265 265 265 264 263 262 258 254 249 244 238 234 233 234 234 227 219 215 213 210 207 204 201 198 196 197 195 190 188 191 192 191 192 195 194 191 185 183
340 338 337 336 335 334 334 333 331 329 328 326 322 320 319 318 316 314 313 310 307 304 303 301 299 298 298 296 294 293 292 290 289 289 286 282 278 271 264 263 263 262 263 265 265 265 267 267 268 268 266 265 263 259 253 250 246 240 238 239 237 233 226 218 213 209 206 202 198 193 189 187 186 183 179 181 185 186 187 189 191 193 197 199 198
338 335 334 333 331 330 329 328 328 326 325 324 320 317 317 316 314 312 309 306 303 299 297 297 295 293 294 294 292 292 292 291 289 289 288 284 279 274 268 267 267 264 261 264 266 267 269 270 270 270 269 266 262 257 253 251 246 242 242 241 235 229 224 217 208 203 200 198 193 189 184 181 178 175 176 181 184 185 185 186 188 192 197 204 209
336 333 331 330 328 327 325 324 324 323 322 322 318 315 315 314 312 311 307 303 298 293 291 292 289 287 288 290 291 291 291 291 291 289 288 286 281 275 271 269 269 266 263 264 267 269 270 271 271 271 269 266 262 258 254 251 247 243 241 238 232 225 220 212 204 199 196 195 192 188 182 178 176 177 181 184 184 183 182 184 189 195 198 201 207
332 330 328 326 325 325 323 321 321 320 320 320 317 313 313 312 309 308 305 299 292 287 286 287 284 281 282 284 288 291 291 291 290 289 287 286 283 279 275 272 270 268 266 266 268 270 271 272 273 273 269 265 264 260 252 247 245 243 238 233 226 220 216 210 202 196 195 194 191 186 182 180 181 185 186 183 178 175 177 183 190 195 197 199 203
329 326 325 324 323 323 322 320 320 320 319 318 316 312 310 307 304 302 299 294 288 283 281 281 279 277 278 279 284 289 291 290 289 289 288 287 285 283 281 278 275 272 269 269 270 271 271 272 272 270 265 261 258 252 245 241 240 238 234 228 222 218 215 209 201 196 196 194 189 186 184 183 185 187 182 176 172 173 178 183 186 190 193 195 195
327 324 324 323 322 322 321 319 318 317 316 315 313 310 307 303 299 296 293 290 286 281 277 276 275 273 274 278 282 286 288 288 288 289 289 287 286 286 284 281 280 277 273 272 272 272 271 269 267 264 260 257 254 247 241 237 235 233 230 225 220 218 216 211 203 200 198 194 190 187 184 182 182 181 174 168 169 177 183 185 184 185 189 191 190
325 322 322 322 320 320 318 316 315 314 313 311 309 306 304 302 297 292 290 286 282 280 277 274 272 271 271 275 280 283 285 285 285 288 289 287 287 287 284 281 279 276 274 275 275 274 271 268 262 255 248 245 242 237 234 232 230 229 229 225 221 218 215 209 204 201 199 193 188 184 179 178 177 173 166 164 171 180 187 189 188 187 188 187 185
325 322 322 321 319 319 317 313 312 311 309 308 307 303 301 298 295 293 294 291 283 279 279 276 273 273 271 271 272 274 277 280 282 287 290 290 287 284 282 280 278 275 275 277 276 271 266 258 247 237 230 227 227 225 226 227 228 228 227 224 218 211 205 200 197 196 193 187 182 178 175 174 170 163 159 164 175 181 185 188 189 188 186 186 185
327 324 323 321 319 318 315 312 310 309 307 306 307 305 303 300 294 290 293 296 292 283 277 276 277 276 272 271 270 266 269 277 282 284 284 284 283 281 279 278 278 276 276 276 270 261 251 241 232 224 219 218 219 220 222 222 223 223 221 216 210 200 194 193 192 188 184 181 177 174 173 168 160 156 160 166 172 177 182 187 189 188 185 185 185
326 322 322 320 317 316 313 310 308 307 304 303 303 303 303 303 300 294 291 295 295 290 281 278 279 277 273 272 274 271 270 275 280 281 280 280 279 278 277 278 278 277 274 270 258 244 234 228 225 221 217 217 219 219 220 220 217 212 207 202 195 189 186 188 188 184 179 176 174 172 170 163 157 159 165 167 168 173 179 185 188 188 187 186 184
323 319 318 315 312 311 308 307 306 304 303 302 300 298 298 300 302 302 300 296 293 291 287 284 281 278 274 273 274 275 275 275 276 277 278 278 278 277 276 276 276 274 269 260 245 230 224 225 224 220 218 219 221 221 221 218 211 204 196 186 179 180 183 184 185 182 177 173 172 169 165 160 159 162 166 167 168 171 177 183 186 187 186 186 186
318 314 311 309 307 305 302 303 305 303 301 300 298 296 294 291 294 299 302 302 298 292 287 284 282 279 277 275 273 274 275 276 275 276 277 277 277 276 275 274 272 268 262 253 237 223 222 225 225 222 219 220 222 222 219 215 207 200 196 187 176 175 181 183 183 180 177 174 172 169 163 161 162 163 166 170 173 175 178 182 185 185 184 185 186
311 304 300 300 301 299 298 299 301 300 299 298 295 293 291 288 285 288 294 299 300 295 288 284 281 279 279 278 276 274 274 275 275 275 275 276 276 273 271 270 267 262 255 244 228 218 221 223 221 220 219 218 218 216 211 207 201 196 195 194 184 176 179 182 182 180 179 176 173 169 166 166 167 168 169 171 174 178 180 182 184 184 185 184 184
313 307 304 302 299 296 297 299 299 299 297 295 292 289 286 285 284 282 280 283 287 288 287 285 283 280 279 279 278 276 274 273 273 272 270 271 271 268 266 265 261 256 248 234 219 215 220 220 217 218 216 213 211 208 202 200 197 193 192 194 191 185 183 184 184 184 183 181 177 175 173 174 176 177 175 173 175 179 182 184 186 187 187 186 183
317 314 312 307 299 296 298 300 300 298 295 291 289 287 285 283 281 279 277 276 275 277 281 283 284 282 279 277 277 275 272 270 270 267 263 266 268 262 257 254 249 240 233 221 210 212 218 219 217 217 214 210 208 204 200 198 195 192 191 191 192 192 192 192 192 191 189 187 186 184 182 181 181 180 178 177 181 184 186 187 189 190 189 187 185
317 314 312 308 304 301 301 300 297 294 292 289 287 287 287 286 282 278 276 275 274 274 276 280 282 281 279 278 277 274 271 268 265 261 259 263 265 258 253 249 238 225 219 212 205 205 210 214 215 215 212 210 208 205 203 201 198 196 195 194 195 197 199 201 203 203 201 199 195 191 188 187 186 184 182 181 183 186 188 189 189 189 188 187 185
319 316 312 309 306 303 301 299 297 294 291 288 286 285 286 286 284 281 276 274 274 274 274 276 277 274 274 277 277 274 271 266 259 253 253 254 254 257 255 247 232 217 213 209 203 202 203 207 212 213 210 208 207 206 206 205 203 201 199 198 198 199 201 202 204 206 206 205 202 198 195 192 190 189 188 186 185 186 187 186 185 183 181 181 181
321 317 313 309 304 300 298 296 296 295 291 287 285 286 287 288 287 284 280 276 274 273 273 274 273 269 269 274 275 269 263 256 247 246 247 240 238 249 252 236 218 206 200 197 198 201 203 206 210 212 212 209 208 206 205 205 205 204 202 200 198 196 196 197 199 200 201 201 200 198 196 193 192 191 191 190 189 186 183 183 183 181 177 176 179
318 316 314 310 303 298 296 293 292 291 289 288 291 292 292 290 288 286 283 279 275 274 272 271 270 270 271 272 269 260 250 242 237 238 233 216 211 210 202 197 194 191 189 190 193 199 205 210 212 215 216 215 213 211 210 209 208 206 204 202 199 197 197 198 199 199 198 198 197 194 193 192 192 191 191 191 190 187 184 182 182 183 181 181 183
317 314 313 312 307 301 295 290 289 289 289 291 294 294 293 291 289 286 284 280 275 273 271 268 268 271 272 269 263 253 243 235 228 215 188 182 183 177 171 180 191 200 209 218 222 220 220 221 222 222 222 221 220 218 216 214 212 210 208 205 202 199 198 198 199 198 197 196 194 192 192 193 192 190 188 187 187 187 186 185 185 186 187 188 190
318 314 313 315 315 310 302 295 292 292 293 293 294 295 294 294 291 288 285 281 276 271 267 265 267 270 269 263 254 242 233 224 206 174 143 135 138 141 141 148 164 188 210 227 245 249 242 236 231 228 227 226 225 222 220 218 216 214 211 208 205 202 199 198 198 198 196 195 194 193 193 192 191 190 188 187 186 186 186 187 186 185 185 186 187
320 318 319 320 320 316 310 303 301 301 300 299 299 300 300 297 293 289 285 280 274 268 263 262 262 260 257 251 238 224 214 198 173 152 135 126 124 125 124 123 121 117 115 112 96 69 269 248 233 226 223 224 224 225 225 224 220 216 212 209 206 203 201 200 198 198 198 196 195 195 193 191 190 191 190 189 187 185 184 184 184 185 186 187 189
326 326 327 325 323 320 316 313 311 308 307 308 310 311 312 310 305 299 293 284 273 264 259 255 245 228 217 209 195 186 174 154 142 137 133 130 129 128 126 124 124 121 118 116 109 98 87 124 203 202 201 204 209 214 218 221 221 219 216 211 206 205 206 206 205 203 202 198 194 192 191 191 191 191 190 188 186 184 183 185 187 189 191 192 192
335 334 332 329 327 324 322 323 323 320 320 328 336 338 339 340 338 334 329 319 305 288 272 252 211 184 173 160 149 147 140 131 128 128 127 127 127 127 127 127 128 126 121 115 115 113 109 113 128 138 140 140 145 156 167 176 188 199 206 208 205 203 202 202 200 197 195 193 192 191 191 190 191 191 190 190 191 190 190 192 194 194 194 195 195
346 346 343 337 331 327 327 329 331 332 339 351 359 1 1 1 1 2 3 4 5 10 18 36 79 113 122 118 118 120 120 116 114 112 112 112 112 113 114 117 120 120 115 113 120 126 126 125 128 130 129 128 126 128 134 141 149 160 170 177 183 182 177 175 177 181 184 188 190 190 190 191 192 193 195 196 197 197 197 198 199 200 200 201 201
354 356 357 353 344 339 340 340 339 340 349 1 8 11 13 17 18 19 22 28 34 37 39 45 54 67 82 93 99 102 103 104 104 102 100 99 98 97 97 99 100 101 100 102 108 115 117 117 120 124 127 129 129 129 131 134 139 147 155 159 166 171 172 175 180 185 190 194 195 193 192 192 194 198 202 203 203 203 203 202 205 207 207 206 205
2 1 4 4 359 353 355 358 356 351 355 4 10 13 18 24 30 32 34 38 43 45 47 47 48 55 69 79 85 89 91 93 94 94 94 94 92 90 90 89 90 91 93 93 94 97 100 102 105 107 110 113 115 117 119 122 126 132 139 144 150 157 166 175 181 184 188 193 197 198 198 199 201 203 207 208 210 210 209 208 209 210 208 206 207
9 5 4 5 4 0 2 8 9 5 5 9 13 15 19 26 32 35 37 40 43 47 49 50 52 58 67 74 78 82 84 85 86 86 87 88 87 86 84 82 81 82 85 87 88 90 94 97 98 98 98 98 100 103 105 107 112 118 126 133 140 150 160 170 176 180 182 187 192 196 201 204 206 208 209 211 213 214 213 212 211 210 208 207 208
14 9 5 3 5 5 8 14 17 17 17 18 18 17 20 26 31 35 37 39 41 44 48 51 54 59 64 67 70 73 75 77 79 80 80 80 79 78 75 73 72 71 73 77 82 86 88 89 89 88 86 84 83 83 88 91 98 114 133 147 162 179 191 196 200 202 205 207 208 211 213 214 213 211 210 211 212 212 213 213 213 211 211 211 211
15 11 7 4 4 8 14 19 23 24 24 25 23 21 22 25 29 34 37 39 40 43 45 48 51 55 58 61 63 65 69 72 74 76 77 76 74 73 71 70 70 71 71 75 78 79 80 80 79 76 75 75 72 71 74 79 86 101 126 163 190 205 215 216 213 213 216 217 218 220 219 217 217 216 216 216 217 217 217 217 216 214 213 213 210
Height
787 787 788 788 789 790 791 792 792 793 793 793 793 792 793 793 793 794 794 794 794 795 795 795 796 797 797 798 798 799 799 799 800 801 801 800 800 799 799 800 799 798 799 800 801 801 801 801 801 802 804 804 805 806 807 808 809 810 812 814 814 815 817 817 813 806 805 806 806 806 807 808 811 813 816 820 823 826 830 833 836 839 842 844 845
787 786 787 787 787 788 789 790 790 790 790 790 790 790 790 791 791 791 791 791 792 791 791 792 792 793 794 794 794 795 795 796 797 797 797 796 796 796 796 796 795 795 795 795 795 796 796 796 796 798 800 799 799 801 802 803 804 804 806 808 807 808 811 812 809 803 801 801 802 802 803 804 805 806 809 812 815 819 822 826 830 833 837 840 842
786 785 786 786 786 787 787 787 788 788 788 788 788 787 787 788 789 789 788 788 788 788 788 788 789 789 790 789 790 790 791 792 793 793 793 792 792 792 793 792 791 791 791 790 790 791 792 791 792 793 795 795 795 796 796 797 798 798 798 800 800 800 802 805 804 800 798 798 799 799 800 800 800 801 804 808 811 813 815 817 822 827 832 836 839
784 783 783 783 784 784 784 785 785 785 786 785 785 785 785 785 786 786 786 786 785 785 784 785 785 785 785 785 786 786 787 788 789 789 789 789 789 789 789 788 787 786 786 785 786 787 787 786 786 788 790 790 789 790 791 792 793 793 792 794 794 793 794 796 796 795 794 794 794 796 798 799 801 801 803 807 810 810 811 813 816 821 826 831 834
781 780 781 781 782 782 782 783 783 783 784 783 783 783 783 783 783 783 783 782 782 782 782 781 782 782 781 781 781 782 783 784 784 785 785 785 785 785 784 784 783 782 782 781 782 782 782 781 781 783 784 784 783 784 785 786 787 787 787 788 789 789 790 791 792 793 795 794 793 794 796 799 802 803 804 806 808 810 812 813 814 817 822 826 829
779 778 779 779 779 780 780 781 781 781 781 781 780 780 780 780 780 780 780 779 779 779 779 778 778 778 778 778 778 778 779 780 780 781 781 781 781 780 780 779 779 779 778 777 777 777 777 776 777 778 779 777 777 778 779 780 781 781 781 782 784 785 786 787 789 791 794 795 795 795 795 796 799 801 802 804 805 806 809 813 815 816 819 822 825
777 777 777 777 777 778 779 779 779 779 778 778 778 778 778 778 777 777 777 776 776 776 775 775 775 775 774 774 774 774 775 776 776 776 776 777 776 776 776 775 775 774 773 773 773 773 772 772 772 773 772 771 771 772 773 774 775 774 775 777 779 781 782 783 785 787 789 790 792 792 793 794 796 797 798 802 804 803 804 807 810 813 815 817 820
775 775 775 775 776 776 777 777 777 777 776 776 776 775 775 775 774 774 773 772 772 772 772 772 772 771 771 770 770 771 771 771 771 772 772 772 772 772 771 771 770 769 769 769 769 768 767 767 766 766 766 765 765 766 767 768 768 768 769 772 774 776 777 779 781 782 783 784 785 786 788 790 791 792 794 797 798 796 796 798 801 806 810 813 816
774 774 773 774 775 775 776 776 775 775 774 774 774 773 772 772 771 770 770 769 769 768 769 769 768 767 767 766 767 767 767 766 766 767 767 767 767 767 767 767 766 765 764 764 764 763 762 761 760 760 760 760 760 762 762 762 763 762 763 766 769 770 772 773 775 776 777 778 779 782 784 784 783 783 785 785 784 785 789 792 796 801 805 809 813
772 772 773 774 774 774 774 774 774 773 773 772 772 771 770 770 769 768 767 766 766 765 765 765 764 763 763 762 763 762 762 762 762 762 762 763 763 763 762 762 761 761 760 759 758 758 757 756 755 754 755 755 755 756 757 757 758 757 758 761 762 763 765 766 767 769 771 771 772 775 776 775 773 773 773 775 778 781 783 786 791 797 803 807 810
772 772 773 773 774 774 773 773 773 772 772 771 770 770 769 768 766 765 764 763 763 762 762 761 760 760 759 758 758 757 757 757 757 758 758 759 759 759 758 757 757 756 755 754 753 752 752 751 750 750 750 749 750 751 751 752 753 753 754 756 757 757 758 760 761 763 765 765 765 767 766 765 766 768 770 773 777 778 779 781 786 792 797 801 804
773 773 773 773 773 773 773 772 772 771 771 770 769 768 767 766 764 763 761 761 760 759 758 757 756 756 755 754 753 752 752 752 753 753 753 754 755 754 753 753 752 751 750 749 748 748 747 747 745 745 744 744 745 745 746 747 747 748 749 751 751 751 751 752 754 756 757 758 759 760 760 761 763 765 767 771 774 776 778 780 782 786 790 794 797
773 773 773 773 773 773 772 772 771 770 770 769 768 767 766 764 763 761 759 758 757 756 755 754 753 752 751 750 748 747 747 748 748 749 749 749 750 750 749 748 747 746 745 745 744 743 743 742 741 740 739 740 740 740 741 741 742 743 743 744 745 745 745 746 747 748 749 751 753 754 754 757 760 761 763 767 771 775 779 781 781 783 786 789 792
772 772 772 772 772 771 771 770 770 769 768 767 766 765 764 762 761 759 757 756 755 753 752 751 749 749 748 746 744 742 742 743 743 744 744 744 745 745 744 743 742 741 740 740 740 739 739 738 736 735 735 736 736 736 736 736 737 737 737 737 737 738 739 740 741 743 745 747 747 747 748 751 753 755 759 764 767 770 775 777 778 780 782 785 789
772 772 771 771 770 770 769 768 768 767 765 764 763 762 761 759 758 756 755 753 752 750 749 747 746 745 744 743 740 737 736 738 739 739 739 739 740 741 740 739 737 735 734 735 735 734 733 733 731 730 730 731 731 732 732 731 732 731 731 731 731 732 733 733 734 738 741 742 742 743 745 748 750 753 757 760 763 766 769 771 772 775 779 784 788
771 771 770 770 769 769 768 766 765 763 762 761 759 758 757 756 755 753 751 750 748 747 745 744 742 741 740 739 737 733 731 734 735 734 735 735 736 736 735 734 732 730 729 729 729 728 727 727 726 725 725 725 726 727 727 726 726 726 725 725 726 726 726 727 729 733 736 738 739 742 744 747 749 752 754 755 758 761 765 768 770 773 777 782 786
771 770 770 769 768 767 766 763 762 760 758 757 756 755 754 753 752 750 748 746 745 743 742 740 738 737 736 735 733 729 727 729 731 730 731 732 732 731 730 729 727 725 724 724 723 722 721 721 721 720 719 719 721 722 722 722 721 720 720 721 722 721 721 723 726 729 731 733 735 737 739 742 745 748 749 750 751 753 758 762 765 768 772 777 781
769 768 767 766 765 764 763 761 759 757 756 755 753 752 751 750 749 748 746 743 741 739 738 736 734 733 732 730 729 727 723 724 727 727 727 729 729 728 727 725 723 720 719 718 717 716 716 716 716 716 714 714 716 717 718 718 717 716 716 717 717 716 716 719 723 725 727 730 732 733 736 738 741 744 745 746 746 748 751 754 757 762 767 771 775
768 766 765 763 762 761 760 758 757 755 754 752 751 750 748 747 746 745 743 741 738 736 735 733 730 729 728 726 725 724 721 720 722 723 723 725 726 725 724 722 719 716 715 713 711 711 710 710 710 710 710 710 711 712 713 714 713 712 713 714 712 711 713 717 719 720 723 725 727 729 732 734 737 740 742 742 743 744 746 748 751 755 761 766 771
767 765 763 761 760 759 757 756 755 754 752 750 749 747 746 745 743 741 740 738 736 733 732 730 727 724 723 723 721 720 719 717 718 719 719 720 721 721 721 718 715 713 712 709 707 706 705 705 705 705 705 705 706 707 707 707 707 707 708 708 706 706 711 714 714 715 717 719 721 724 727 730 733 736 738 739 739 741 744 745 748 751 756 762 767
766 763 761 760 758 757 756 754 753 752 751 749 747 745 744 743 741 739 737 735 733 731 729 728 725 721 719 719 717 716 716 714 714 715 716 716 716 717 716 713 712 711 709 705 703 701 700 700 700 700 701 701 701 702 702 702 702 702 701 699 700 704 707 708 709 712 714 716 719 721 723 726 730 732 733 734 736 738 740 743 746 750 754 758 762
764 762 760 758 757 755 754 753 752 751 749 748 745 742 741 741 738 737 735 733 731 729 727 725 724 720 716 716 714 713 712 712 711 711 711 711 711 712 711 709 708 708 705 701 699 698 697 697 696 696 696 696 696 698 698 698 698 697 696 697 699 702 703 704 706 709 711 713 716 718 720 723 726 729 730 731 734 736 737 740 745 749 752 756 759
763 761 759 757 755 754 753 751 750 749 747 746 744 740 738 737 735 734 733 731 728 726 724 723 722 718 714 712 710 709 709 708 708 707 707 707 707 706 706 704 704 705 702 697 695 695 694 693 693 693 692 692 692 693 693 693 694 693 693 695 697 698 700 701 702 705 708 711 712 713 714 717 720 724 726 729 732 733 734 738 743 747 751 755 758
761 759 758 756 754 753 751 749 748 747 745 744 742 738 735 734 732 730 729 728 727 724 721 720 719 716 712 709 706 706 706 705 704 704 704 703 702 701 700 699 699 700 698 694 692 692 691 690 690 689 689 688 688 688 688 689 690 690 691 692 693 695 697 698 699 701 704 706 708 710 711 712 715 718 722 725 728 730 733 738 742 746 750 754 757
760 759 758 756 754 752 750 747 746 744 743 741 739 735 733 731 728 727 726 725 724 722 719 717 716 714 711 707 703 702 702 701 700 700 700 699 698 697 696 695 694 694 693 690 689 688 687 687 686 686 685 685 685 685 685 685 686 687 688 689 691 693 694 695 697 698 699 701 704 707 709 711 713 716 720 722 725 728 732 737 742 746 749 753 756
760 758 757 754 753 751 747 744 742 740 739 738 736 733 731 729 726 724 723 722 721 719 716 714 712 710 707 704 701 698 697 697 696 696 696 695 693 692 692 691 690 690 688 686 685 685 683 683 683 682 681 681 681 681 681 682 683 684 685 687 689 690 691 693 694 695 697 699 701 704 706 709 712 716 719 719 721 726 731 736 740 744 747 750 754
758 756 754 752 749 747 745 741 739 737 735 734 733 731 729 727 725 722 719 718 717 715 713 710 708 706 703 700 697 695 693 692 692 691 691 691 689 688 688 687 686 685 684 682 681 680 679 678 678 678 677 677 677 678 678 679 680 682 683 684 685 686 688 690 691 693 695 697 700 703 704 707 711 715 716 715 719 725 730 734 738 741 745 748 752
757 754 752 750 747 745 743 740 737 735 732 731 730 728 726 724 722 719 716 715 714 712 709 706 703 701 699 697 694 692 689 687 687 687 687 687 686 685 684 683 682 681 680 679 678 676 675 674 674 674 674 674 675 675 676 677 678 679 680 681 682 684 686 688 690 692 694 696 699 700 702 706 711 712 710 713 719 726 730 733 736 739 742 746 749
754 752 750 747 745 743 740 738 736 733 730 727 725 723 722 721 719 714 710 710 710 708 705 701 698 697 695 693 691 689 685 682 682 683 683 683 683 682 681 680 679 678 677 676 675 674 672 672 671 671 671 672 672 673 674 675 676 677 678 679 679 681 683 685 687 690 692 694 697 698 701 706 707 706 707 713 720 725 728 731 735 738 741 744 746
751 749 747 745 743 740 738 735 733 731 728 724 721 717 714 714 714 711 705 703 703 703 701 697 694 694 692 689 687 685 681 677 677 679 678 678 679 678 677 676 675 675 674 674 673 671 670 669 669 668 669 669 670 671 672 673 674 675 675 676 677 678 680 683 685 687 690 692 695 697 701 702 701 701 707 713 719 722 726 730 733 736 739 742 744
751 747 745 743 740 738 736 733 730 728 725 722 720 716 710 706 705 705 703 700 696 695 695 693 691 691 689 685 682 680 678 675 674 674 673 673 674 673 673 672 672 671 671 671 670 668 667 667 667 666 667 667 668 669 670 671 672 673 674 674 675 676 679 682 684 686 689 691 694 697 698 697 697 701 707 712 716 720 725 729 732 735 737 739 742
751 747 745 743 740 737 735 731 728 725 722 720 718 716 711 705 698 694 695 695 693 690 689 688 687 686 685 683 680 677 674 673 671 670 668 668 668 668 668 668 667 667 668 668 666 665 665 665 665 665 666 666 666 668 669 670 671 672 672 673 673 675 678 681 683 685 687 689 692 694 694 694 696 701 706 710 714 719 724 727 730 732 735 737 740
753 749 746 744 741 737 734 730 727 724 720 717 715 712 710 707 700 692 687 686 687 686 684 683 683 682 681 679 677 675 672 670 668 667 665 664 664 664 664 664 663 664 664 664 663 663 663 664 664 664 664 665 666 667 668 669 670 671 672 672 673 675 677 680 683 685 687 688 690 691 692 693 696 701 705 709 713 717 721 725 728 730 733 735 738
753 750 747 744 740 736 732 729 726 722 718 715 712 709 707 704 701 695 688 682 680 680 679 679 679 678 676 674 673 672 670 667 665 663 662 661 660 660 661 660 660 660 661 660 660 661 662 662 662 663 663 664 665 666 667 668 669 670 671 672 674 675 677 680 682 684 686 687 688 689 690 692 695 700 704 708 711 716 720 723 725 728 730 733 736
749 746 743 741 738 733 730 727 724 720 716 712 709 707 704 700 696 693 689 684 680 677 674 673 673 673 671 670 669 668 667 665 662 660 658 657 657 658 658 657 657 657 657 658 658 659 661 661 661 662 662 663 664 665 666 667 668 669 670 672 673 675 677 679 681 683 685 686 686 687 688 691 695 698 702 705 710 714 717 720 723 725 728 731 733
744 741 738 737 735 731 727 724 720 718 714 710 706 702 699 696 692 689 685 683 679 675 671 669 668 668 667 665 665 664 663 662 660 657 655 654 655 656 655 655 654 655 655 656 657 658 659 660 661 662 662 663 663 664 665 666 667 668 670 671 673 674 676 678 680 682 683 684 685 687 689 692 695 698 701 704 708 712 714 717 720 723 726 728 731
741 738 735 733 731 727 724 721 718 715 712 707 703 699 695 692 688 685 682 679 676 673 669 666 664 664 662 661 661 661 660 659 658 655 652 652 652 654 654 653 653 654 654 655 656 657 658 660 661 661 662 663 663 664 665 666 667 668 670 671 672 674 676 678 679 681 683 684 686 687 690 692 694 696 700 703 707 710 713 715 718 721 724 726 729
737 734 732 730 727 724 721 718 714 712 709 705 700 697 692 688 684 681 678 675 672 670 667 664 662 661 659 658 658 658 658 657 655 652 650 649 650 651 652 653 653 653 654 655 655 656 657 659 660 661 662 662 663 664 665 666 667 668 669 671 672 674 675 677 679 680 682 683 685 687 689 691 693 696 699 702 705 708 711 713 716 719 722 724 726
734 732 730 728 725 722 719 716 712 709 706 702 697 693 689 685 681 677 674 672 669 667 664 662 660 658 657 656 656 656 656 656 653 650 649 648 648 650 651 652 653 653 654 654 655 656 657 658 660 661 662 662 663 663 664 666 667 668 669 671 672 674 675 676 678 680 681 683 685 687 688 691 693 696 698 701 703 706 709 712 714 717 720 722 725
732 730 728 726 724 721 717 714 711 707 703 699 694 690 686 682 678 674 671 668 666 663 662 660 657 656 655 655 655 655 655 654 652 650 648 648 648 649 650 652 653 654 655 655 656 656 657 658 659 660 661 662 663 663 664 665 666 667 669 670 671 673 674 675 677 678 680 682 684 686 688 690 693 695 698 700 702 705 707 710 713 715 718 720 723
732 729 725 723 722 719 715 712 709 705 700 696 692 688 683 679 675 672 668 665 663 661 659 657 655 654 654 654 654 655 655 653 651 650 649 648 649 649 650 651 653 654 655 655 656 657 657 658 659 660 661 662 663 663 664 665 666 667 668 669 670 672 673 675 676 678 679 681 683 685 688 690 692 695 697 699 702 704 707 709 712 714 716 719 721
730 727 723 721 718 715 712 708 705 701 698 693 689 685 681 676 672 669 665 662 660 658 656 655 654 653 653 653 654 654 654 653 651 650 649 649 649 650 651 652 653 654 655 656 656 657 658 658 659 660 661 662 662 663 663 664 665 666 668 669 670 671 673 674 676 677 679 681 683 685 687 690 692 694 697 699 701 703 706 708 710 712 714 717 719
729 725 721 718 714 712 709 705 701 698 694 690 685 681 677 673 670 666 663 660 658 656 655 653 652 652 653 653 654 654 654 653 651 650 650 650 651 651 652 653 654 655 656 656 657 657 658 658 659 660 661 662 663 663 664 664 665 666 667 668 670 671 673 674 676 677 679 681 683 685 687 690 692 694 696 698 700 702 704 707 709 711 713 715 718
727 724 720 715 712 710 707 704 700 696 692 687 683 678 675 671 668 664 661 659 657 655 654 653 652 652 653 653 654 654 654 653 652 651 651 651 652 653 653 654 655 656 656 657 657 658 658 659 660 660 661 662 663 663 664 665 666 667 667 668 669 671 672 674 675 677 679 681 683 685 687 690 692 694 696 697 699 701 703 705 708 710 712 714 716
726 723 719 715 712 709 706 703 700 695 690 686 681 676 673 671 668 664 662 659 658 656 655 653 652 652 653 654 654 655 654 653 653 653 653 653 653 654 654 655 656 657 657 658 658 658 659 660 661 661 662 663 663 664 665 666 667 668 668 669 670 671 672 674 675 677 679 681 683 685 687 689 691 693 695 697 699 701 703 705 707 709 711 713 714
727 723 720 716 713 710 707 703 699 695 691 686 681 677 674 671 669 666 664 662 660 659 657 656 655 655 655 655 655 655 655 655 654 654 655 655 655 655 656 657 657 658 658 659 659 660 660 661 662 663 663 663 664 665 666 667 668 669 670 670 671 672 674 675 676 678 680 681 683 685 687 689 691 693 694 696 698 700 702 704 705 707 709 711 712
727 724 721 718 715 712 709 704 700 696 692 687 683 680 677 674 671 670 667 664 662 661 660 660 659 658 657 657 657 657 657 656 656 656 656 656 657 657 658 658 659 659 660 660 661 661 662 663 664 664 664 664 665 666 667 668 669 670 671 672 673 674 675 677 678 679 681 682 684 685 687 688 690 692 694 696 698 699 701 702 704 705 707 708 710
727 725 722 720 717 714 710 706 702 698 694 690 687 684 681 678 675 673 671 668 665 664 664 664 664 663 662 661 660 659 659 659 658 658 658 658 659 660 660 661 661 661 661 662 662 663 664 665 666 666 666 666 666 667 668 669 670 671 672 674 675 676 677 678 679 680 682 683 684 685 687 688 689 691 693 694 696 698 699 701 702 704 705 707 708
729 727 724 722 719 716 712 708 704 701 698 694 691 688 686 683 679 676 674 672 670 669 669 669 668 668 666 665 663 662 662 661 661 661 661 661 661 662 662 663 663 664 664 664 665 665 666 667 667 668 668 668 668 669 669 670 671 673 674 675 676 677 678 679 680 681 682 683 684 685 687 688 689 690 692 693 694 696 698 699 700 702 704 705 707
730 728 727 725 722 718 714 710 707 703 701 698 695 692 690 687 683 680 678 677 676 675 674 673 672 672 670 669 667 666 665 664 664 664 664 664 664 664 665 665 665 666 666 667 667 668 668 669 669 669 669 669 670 670 671 672 673 674 675 676 677 678 679 680 681 682 682 683 684 685 686 687 688 689 691 692 694 695 696 698 699 701 702 704 705
731 730 728 726 724 720 716 712 708 705 703 700 698 696 694 692 688 686 684 682 681 680 679 677 676 675 673 672 671 669 668 667 667 667 667 667 667 666 667 667 667 668 668 669 669 670 670 669 670 670 670 670 671 671 672 673 674 675 676 676 677 678 679 680 680 681 682 683 684 684 685 686 687 688 690 691 692 694 695 696 698 699 701 702 703